Hourly Data Report for March 12, 2021

OTTAWA INTL A
ONTARIO
Current Station Operator: NAVCAN

45°19'00.000" N
75°40'00.000" W
114.90 m
6106001
71628
YOW

Download Data

Hourly Data (March 2021)
Hourly Data Report for March 12, 2021
TIME
LST
Temp Definition
°C
Dew Point Definition
°C
Rel Hum Definition
%
Precip. Amount Definition
mm

Wind Dir Definition
10's deg

Wind Spd Definition
km/h
Visibility Definition
km
Stn Press Definition
kPa
Hmdx Definition


Wind Chill Definition


Weather Definition


00:00 5.5 -2.3 57   25 39 24.1 99.52     LegendNANA
01:00 5.0 -2.6 58   26 35 24.1 99.65     Clear
02:00 3.5 -3.3 61   27 44 24.1 99.84     LegendNANA
03:00 2.8 -3.7 62   27 32 24.1 100.01     LegendNANA
04:00 2.2 -3.7 65   27 24 24.1 100.08     Clear
05:00 1.7 -3.7 67   26 13 24.1 100.24     LegendNANA
06:00 0.8 -3.6 72   25 13 24.1 100.32     LegendNANA
07:00 1.1 -3.2 73   24 12 24.1 100.39     Mostly Cloudy
08:00 1.9 -3.4 68   24 18 24.1 100.43     LegendNANA
09:00 2.4 -3.5 65   25 20 24.1 100.42     LegendNANA
10:00 2.8 -3.5 63   26 20 24.1 100.35     Mainly Clear
11:00 3.8 -3.2 60   24 22 24.1 100.30     LegendNANA
12:00 5.1 -3.6 53   21 23 24.1 100.16     LegendNANA
13:00 5.8 -3.6 51   24 17 24.1 100.04     Mostly Cloudy
14:00 6.4 -4.2 47   28 29 24.1 99.99     LegendNANA
15:00 5.2 -3.0 56   28 28 24.1 99.98     LegendNANA
16:00 5.3 -3.3 54   25 34 24.1 99.91     Mostly Cloudy
17:00 2.8 -1.2 75   30 23 24.1 99.92     LegendNANA
18:00 3.6 -7.8 43   28 30 24.1 99.95     LegendNANA
19:00 -0.6 -2.0 90   29 39 1.6 100.19   -8 Snow Showers
20:00 -1.6 -8.8 58   31 42 24.1 100.37   -10 LegendNANA
21:00 -2.9 -12.5 48   30 34 24.1 100.52   -11 LegendNANA
22:00 -4.1 -12.6 52   29 37 80.5 100.70   -13 Mainly Clear
23:00 -4.9 -12.1 57   30 33 24.1 100.85   -13 LegendNANA

Notes on Data Quality.

Legend

  • E = Estimated
  • M = Missing
  • NA = Not Available*
  • [empty] = Indicates an unobserved value
Date modified: